TimeHST,TemperatureF,Dew PointF,Humidity,Sea Level PressureIn,VisibilityMPH,Wind Direction,Wind SpeedMPH,Gust SpeedMPH,PrecipitationIn,Events,Conditions,WindDirDegrees,DateUTC
12:56 AM,68.0,61.9,81,29.95,10.0,Calm,Calm,-,N/A,,Clear,0,2012-10-23 10:56:00
1:56 AM,66.2,62.6,88,30.01,10.0,Calm,Calm,-,N/A,,Clear,0,2012-10-23 11:56:00
2:56 AM,68.0,63.9,87,29.93,10.0,Calm,Calm,-,N/A,,Clear,0,2012-10-23 12:56:00
3:56 AM,65.8,63.0,90,29.93,10.0,Calm,Calm,-,N/A,,Clear,0,2012-10-23 13:56:00
4:56 AM,66.9,63.9,90,29.94,10.0,Calm,Calm,-,N/A,,Clear,0,2012-10-23 14:56:00
5:56 AM,65.8,61.9,87,29.95,10.0,Calm,Calm,-,N/A,,Clear,0,2012-10-23 15:56:00
6:56 AM,65.8,61.9,87,29.97,10.0,Calm,Calm,-,N/A,,Clear,0,2012-10-23 16:56:00
7:56 AM,73.9,64.9,73,29.98,10.0,Calm,Calm,-,N/A,,Partly Cloudy,0,2012-10-23 17:56:00
8:56 AM,79.0,63.9,60,29.98,10.0,Calm,Calm,-,N/A,,Clear,0,2012-10-23 18:56:00
9:56 AM,81.9,65.8,58,29.97,10.0,West,5.8,-,N/A,,Clear,260,2012-10-23 19:56:00
10:56 AM,81.9,65.8,58,29.95,10.0,Calm,Calm,-,N/A,,Clear,0,2012-10-23 20:56:00
11:56 AM,84.9,65.8,53,29.93,10.0,WNW,3.5,-,N/A,,Clear,290,2012-10-23 21:56:00
12:56 PM,83.8,63.9,51,29.91,10.0,West,3.5,-,N/A,,Clear,260,2012-10-23 22:56:00
1:56 PM,83.8,63.9,51,29.88,10.0,Calm,Calm,-,N/A,,Partly Cloudy,0,2012-10-23 23:56:00
2:56 PM,81.9,64.9,56,29.88,10.0,Calm,Calm,-,N/A,,Mostly Cloudy,0,2012-10-24 00:56:00
3:43 PM,80.6,64.4,58,29.95,10.0,West,3.5,-,N/A,,Scattered Clouds,280,2012-10-24 01:43:00
3:56 PM,81.0,65.8,60,29.88,9.0,Calm,Calm,-,N/A,,Clear,0,2012-10-24 01:56:00
4:56 PM,77.9,64.9,64,29.90,10.0,Calm,Calm,-,N/A,,Clear,0,2012-10-24 02:56:00
5:56 PM,73.9,64.9,73,29.92,10.0,Calm,Calm,-,N/A,,Partly Cloudy,0,2012-10-24 03:56:00
6:56 PM,73.9,65.8,76,29.95,10.0,Calm,Calm,-,N/A,,Scattered Clouds,0,2012-10-24 04:56:00
7:56 PM,73.9,66.9,79,29.96,10.0,Calm,Calm,-,N/A,,Overcast,0,2012-10-24 05:56:00
8:56 PM,72.9,66.9,82,29.96,10.0,Calm,Calm,-,N/A,,Partly Cloudy,0,2012-10-24 06:56:00
10:20 PM,73.4,69.8,88,30.02,10.0,Calm,Calm,-,N/A,,Scattered Clouds,0,2012-10-24 08:20:00
11:56 PM,72.9,68.9,87,29.92,10.0,Calm,Calm,-,N/A,,Mostly Cloudy,0,2012-10-24 09:56:00